User: anonymous   Login
Location: Bowman Observatory
(41.0326°N, 73.6210°W)
Time: 04:15:34
(UTC-04:00)
Language:

Cosmos 2298 Rocket - Orbit

View from above orbital plane
View from above orbital plane
View from above satellite
View from above satellite

Ground track
Ground track

The orbit data is extracted from the following two-line orbital elements,

1 23432U 94083B   15115.10340400  .00000215  00000-0  87585-4 0  9998
2 23432 074.0312 291.7001 0005883 321.3198 180.4684 14.33376977 63958
Epoch (UTC): 25 April 2015 02:28:54
Eccentricity: 0.0005883
inclination: 74.0312°
perigee height: 776 km
apogee height: 784 km
right ascension of ascending node: 291.7001°
argument of perigee: 321.3198°
revolutions per day: 14.33376977
mean anomaly at epoch: 180.4684°
orbit number at epoch: 6395

The dashed part of the orbit path shows where the satellite is in the earth's shadow,  

DLR